EW2719 Weather Reports


time (UTC)temp
C
wind
direction
speed
KPH
gust
KPH
rain 1hr
cm
rain 24hr
cm
rain mn
cm
humidity
%
barometer
mb
20260902191516 13 264 6.4 12.9 0.00 0.05 0.05 84 1013.5
20260902190014 13 254 3.2 11.3 0.00 0.05 0.05 83 1013.6
20260902184512 13 258 4.8 11.3 0.00 0.05 0.05 82 1013.6
20260902183010 14 274 4.8 11.3 0.00 0.05 0.05 82 1013.4
20260902181509 15 279 8.0 12.9 0.00 0.05 0.05 81 1013.3
20260902180008 15 286 6.4 12.9 0.00 0.05 0.05 80 1013.1
20260902174506 16 296 9.7 20.9 0.00 0.05 0.05 78 1012.9
20260902173002 16 297 9.7 17.7 0.00 0.05 0.05 77 1012.8
20260902171603 17 290 11.3 22.5 0.00 0.05 0.05 75 1012.9
20260902170059 17 287 12.9 20.9 0.00 0.05 0.05 76 1012.7
20260902164603 17 294 16.1 22.5 0.00 0.05 0.05 75 1012.7
20260902163102 18 273 16.1 25.7 0.00 0.05 0.05 76 1012.7
20260902161559 18 284 17.7 27.4 0.00 0.05 0.05 77 1012.7
20260902160058 18 292 14.5 27.4 0.00 0.05 0.05 77 1012.7
20260902154608 18 285 20.9 30.6 0.00 0.05 0.05 77 1012.6
20260902153056 18 274 22.5 29.0 0.00 0.05 0.05 80 1012.6
20260902151555 18 305 17.7 29.0 0.00 0.05 0.05 82 1012.7
20260902150055 18 312 19.3 27.4 0.00 0.05 0.05 81 1012.9
20260902144555 18 284 17.7 35.4 0.00 0.05 0.05 77 1012.9
20260902143056 19 277 22.5 35.4 0.00 0.05 0.05 76 1012.7
20260902141554 19 265 20.9 37.0 0.00 0.05 0.05 76 1012.8
20260902140053 19 279 17.7 27.4 0.00 0.05 0.05 76 1012.6
20260902134555 20 265 14.5 30.6 0.00 0.05 0.05 75 1012.5
20260902133051 19 279 17.7 30.6 0.00 0.05 0.05 76 1012.5
20260902131549 18 252 19.3 29.0 0.00 0.05 0.05 76 1012.4
20260902130045 19 253 19.3 29.0 0.00 0.05 0.05 80 1012.5
20260902124540 18 253 16.1 27.4 0.00 0.08 0.05 85 1012.6
20260902123040 17 242 17.7 25.7 0.03 0.08 0.05 86 1012.6
20260902121539 17 238 16.1 29.0 0.03 0.08 0.05 89 1012.8
20260902120037 17 269 16.1 29.0 0.05 0.08 0.05 90 1012.8
20260902114608 17 268 12.9 24.1 0.05 0.08 0.05 90 1012.8
20260902113036 17 252 19.3 30.6 0.03 0.05 0.05 88 1012.7
20260902111535 17 254 22.5 32.2 0.03 0.05 0.05 86 1012.7
20260902110033 17 271 11.3 22.5 0.00 0.05 0.03 90 1012.8
20260902104533 17 259 16.1 29.0 0.00 0.05 0.03 89 1013.0
20260902103032 17 254 9.7 22.5 0.00 0.05 0.03 89 1013.2
20260902101531 17 244 11.3 30.6 0.00 0.05 0.03 89 1013.1
20260902100035 17 264 11.3 29.0 0.00 0.05 0.03 89 1013.2
20260902094530 17 248 14.5 25.7 0.00 0.05 0.03 89 1013.1
20260902093030 17 257 11.3 29.0 0.00 0.05 0.03 88 1013.2
20260902091529 17 229 11.3 27.4 0.00 0.05 0.03 88 1013.1
20260902090029 17 253 14.5 22.5 0.00 0.05 0.03 89 1013.1
20260902084532 17 254 6.4 19.3 0.00 0.05 0.03 89 1012.9
20260902083037 17 265 12.9 30.6 0.00 0.05 0.03 87 1012.8
20260902081526 17 239 9.7 22.5 0.00 0.05 0.03 88 1012.7
20260902080024 17 241 16.1 27.4 0.00 0.05 0.03 90 1012.7
20260902074526 17 240 20.9 35.4 0.00 0.05 0.03 91 1012.6
20260902073022 16 269 11.3 24.1 0.00 0.05 0.03 92 1012.7
20260902071519 16 217 12.9 19.3 0.00 0.05 0.03 93 1012.7
20260902070017 16 231 6.4 17.7 0.00 0.05 0.03 93 1012.8
20260902064522 16 222 11.3 19.3 0.00 0.05 0.03 94 1012.6
20260902063012 15 238 8.0 17.7 0.00 0.05 0.03 95 1012.5
20260902061518 15 223 11.3 19.3 0.00 0.05 0.03 95 1012.4
20260902060009 15 224 8.0 14.5 0.00 0.05 0.03 95 1012.6
20260902054503 15 221 6.4 12.9 0.00 0.05 0.03 95 1012.7
20260902053104 14 217 4.8 14.5 0.00 0.05 0.03 94 1012.7
20260902051558 14 209 8.0 12.9 0.00 0.05 0.03 95 1012.7
20260902050057 14 231 8.0 14.5 0.00 0.05 0.03 94 1012.6
20260902044556 14 209 11.3 17.7 0.00 0.05 0.03 94 1012.5
20260902043053 14 205 9.7 17.7 0.00 0.05 0.03 94 1012.5
20260902041605 14 225 9.7 16.1 0.00 0.05 0.03 94 1012.4
20260902040049 14 208 9.7 17.7 0.03 0.05 0.03 94 1012.6
20260902034547 13 226 8.0 16.1 0.03 0.05 0.03 94 1012.6
20260902033045 13 220 8.0 12.9 0.03 0.05 0.03 94 1012.5
20260902031545 13 198 9.7 16.1 0.03 0.05 0.03 94 1012.6
20260902030042 13 208 9.7 17.7 0.00 0.03 0.00 94 1012.6
20260902024547 13 215 6.4 16.1 0.00 0.03 0.00 94 1012.8
20260902023046 13 225 9.7 14.5 0.00 0.03 0.00 94 1012.9
20260902021547 13 210 11.3 16.1 0.00 0.03 0.00 94 1012.9
20260902020038 13 217 6.4 17.7 0.00 0.03 0.00 93 1012.9
20260902014541 13 209 12.9 19.3 0.00 0.03 0.00 94 1012.9
20260902013037 13 231 11.3 19.3 0.00 0.03 0.00 94 1013.0
20260902011535 13 219 11.3 22.5 0.00 0.03 0.00 93 1013.0
20260902010032 12 219 9.7 17.7 0.00 0.03 0.00 93 1013.1
20260902004531 12 246 9.7 19.3 0.00 0.03 0.00 93 1013.1
20260902003032 12 229 9.7 17.7 0.00 0.03 0.00 93 1013.1
20260902001528 12 236 11.3 17.7 0.00 0.03 0.00 93 1013.2
20260902000025 12 240 9.7 17.7 0.00 0.03 0.00 93 1013.2
20260901234523 12 232 11.3 16.1 0.00 0.05 0.00 92 1013.3
20260901233043 12 222 11.3 17.7 0.00 0.05 0.00 92 1013.3
20260901231518 12 215 4.8 8.0 0.00 0.05 0.00 92 1013.4
20260901230030 12 220 6.4 14.5 0.00 0.05 0.00 92 1013.6
20260901224515 12 228 1.6 11.3 0.00 0.05 0.00 92 1013.7
20260901223014 12 227 4.8 14.5 0.00 0.05 0.00 92 1013.8
20260901221511 12 251 4.8 11.3 0.00 0.05 0.00 91 1013.8
20260901220012 12 233 6.4 12.9 0.00 0.05 0.05 91 1013.9
20260901214519 13 242 6.4 11.3 0.00 0.05 0.05 91 1013.8
20260901213008 13 253 4.8 12.9 0.00 0.05 0.05 90 1013.6
20260901211508 13 262 8.0 16.1 0.00 0.05 0.05 90 1013.7
20260901210008 13 283 12.9 20.9 0.00 0.05 0.05 90 1013.7
20260901204507 13 277 11.3 24.1 0.00 0.05 0.05 89 1013.7
20260901203005 14 278 17.7 25.7 0.00 0.05 0.05 89 1013.7
20260901201504 14 273 14.5 24.1 0.00 0.05 0.05 89 1013.7
20260901200001 15 290 11.3 16.1 0.00 0.05 0.05 89 1013.4
20260901194500 15 286 11.3 25.7 0.00 0.05 0.05 89 1013.3
20260901193159 15 274 16.1 24.1 0.00 0.05 0.05 89 1013.3